FIN23F EFHK-EGLL

Flight info

Callsign FIN23F
Flight time N/A
Altitude 40000
Route ADIVO Y365 POGOK DCT TIPIX DCT UPGAS DCT TIPAN DCT WECOW DCT BINBO DCT AKOKO N866 BUKUT P7 BARMI
Aircraft A359/H-SDE2E3GHIJ3J4J5LM1ORWXY/LB1D1

Departure

Time 2026-05-05 17:33
Airport Helsinki Vantaa Airport (EFHK)

Arrival

Time N/A
Airport London Heathrow Airport (EGLL)
Time Latitude Longitude Altitude Speed Heading
2026-05-05 17:04 60.31331 24.95746 170 ft 0 kts 315°
2026-05-05 17:17 60.31329 24.95749 170 ft 2 kts 315°
2026-05-05 17:17 60.31311 24.95784 170 ft 4 kts 319°
2026-05-05 17:17 60.31293 24.95816 170 ft 4 kts 301°
2026-05-05 17:17 60.31284 24.95851 170 ft 4 kts 270°
2026-05-05 17:18 60.31288 24.95884 170 ft 4 kts 228°
2026-05-05 17:18 60.31307 24.95923 170 ft 4 kts 226°
2026-05-05 17:18 60.31311 24.95931 170 ft 0 kts 227°
2026-05-05 17:21 60.31302 24.95912 170 ft 9 kts 227°
2026-05-05 17:22 60.31191 24.95670 169 ft 11 kts 227°
2026-05-05 17:22 60.31162 24.95559 169 ft 6 kts 277°
2026-05-05 17:22 60.31184 24.95486 169 ft 7 kts 311°
2026-05-05 17:22 60.31232 24.95391 169 ft 11 kts 317°
2026-05-05 17:23 60.31294 24.95276 169 ft 13 kts 317°
2026-05-05 17:23 60.31366 24.95142 169 ft 15 kts 316°
2026-05-05 17:23 60.31441 24.94995 169 ft 13 kts 324°
2026-05-05 17:23 60.31492 24.95015 169 ft 11 kts 35°
2026-05-05 17:24 60.31565 24.95168 169 ft 17 kts 48°
2026-05-05 17:24 60.31645 24.95344 169 ft 15 kts 47°
2026-05-05 17:24 60.31704 24.95473 169 ft 14 kts 47°
2026-05-05 17:24 60.31775 24.95632 170 ft 17 kts 47°
2026-05-05 17:25 60.31860 24.95819 170 ft 19 kts 47°
2026-05-05 17:25 60.31895 24.95895 170 ft 8 kts 47°
2026-05-05 17:25 60.31966 24.95941 170 ft 11 kts 329°
2026-05-05 17:25 60.32032 24.95832 170 ft 13 kts 318°
2026-05-05 17:26 60.32109 24.95686 169 ft 17 kts 317°
2026-05-05 17:26 60.32197 24.95530 170 ft 17 kts 317°
2026-05-05 17:26 60.32278 24.95375 171 ft 9 kts 317°
2026-05-05 17:26 60.32334 24.95284 172 ft 15 kts 328°
2026-05-05 17:27 60.32435 24.95212 175 ft 16 kts 342°
2026-05-05 17:27 60.32542 24.95146 178 ft 16 kts 342°
2026-05-05 17:27 60.32647 24.95080 181 ft 16 kts 342°
2026-05-05 17:27 60.32751 24.95012 192 ft 16 kts 342°
2026-05-05 17:28 60.32849 24.94948 196 ft 13 kts 341°
2026-05-05 17:28 60.32925 24.94858 203 ft 12 kts 320°
2026-05-05 17:28 60.32975 24.94771 200 ft 10 kts 319°
2026-05-05 17:28 60.33020 24.94689 208 ft 8 kts 317°
2026-05-05 17:29 60.33047 24.94637 199 ft 0 kts 317°
2026-05-05 17:29 60.33082 24.94573 208 ft 12 kts 317°
2026-05-05 17:30 60.33124 24.94450 208 ft 9 kts 268°
2026-05-05 17:30 60.33095 24.94349 202 ft 6 kts 229°
2026-05-05 17:30 60.33093 24.94346 202 ft 0 kts 229°
2026-05-05 17:32 60.33092 24.94343 203 ft 2 kts 229°
2026-05-05 17:32 60.32932 24.93986 205 ft 71 kts 227°
2026-05-05 17:33 60.32442 24.92906 177 ft 135 kts 227°
2026-05-05 17:33 60.31730 24.91360 624 ft 151 kts 229°
2026-05-05 17:33 60.31048 24.89806 1496 ft 146 kts 234°
2026-05-05 17:33 60.30472 24.87967 1813 ft 171 kts 258°
2026-05-05 17:34 60.30622 24.85510 2187 ft 191 kts 295°
2026-05-05 17:34 60.31218 24.82970 2723 ft 211 kts 293°
2026-05-05 17:34 60.31750 24.80053 3259 ft 230 kts 282°
2026-05-05 17:34 60.31925 24.76788 4080 ft 237 kts 270°
2026-05-05 17:35 60.31833 24.73435 4949 ft 242 kts 267°
2026-05-05 17:35 60.31712 24.70021 5827 ft 246 kts 267°
2026-05-05 17:35 60.31605 24.66589 6740 ft 249 kts 267°
2026-05-05 17:35 60.31507 24.63074 7675 ft 252 kts 267°
2026-05-05 17:36 60.31414 24.59528 8648 ft 254 kts 267°
2026-05-05 17:36 60.31324 24.55952 9658 ft 256 kts 267°
2026-05-05 17:36 60.31231 24.52318 10409 ft 266 kts 266°
2026-05-05 17:36 60.31131 24.48456 10862 ft 286 kts 266°
2026-05-05 17:37 60.31022 24.44312 11329 ft 304 kts 265°
2026-05-05 17:37 60.30948 24.41470 11759 ft 310 kts 265°
2026-05-05 17:37 60.30796 24.35622 13028 ft 311 kts 264°
2026-05-05 17:37 60.30683 24.31291 14049 ft 309 kts 264°
2026-05-05 17:38 60.30565 24.26948 14829 ft 312 kts 264°
2026-05-05 17:38 60.30424 24.22618 15559 ft 314 kts 261°
2026-05-05 17:38 60.30100 24.18250 16362 ft 315 kts 258°
2026-05-05 17:38 60.29717 24.13880 17218 ft 317 kts 258°
2026-05-05 17:39 60.29303 24.09501 18083 ft 318 kts 257°
2026-05-05 17:39 60.28866 24.05106 18810 ft 321 kts 257°
2026-05-05 17:39 60.28414 24.00651 19504 ft 325 kts 257°
2026-05-05 17:39 60.27961 23.96224 20187 ft 328 kts 257°
2026-05-05 17:40 60.27495 23.91692 20882 ft 332 kts 257°
2026-05-05 17:40 60.27023 23.87100 21574 ft 335 kts 257°
2026-05-05 17:40 60.26547 23.82470 22265 ft 339 kts 257°
2026-05-05 17:40 60.26070 23.77830 22949 ft 342 kts 257°
2026-05-05 17:41 60.25582 23.73104 23589 ft 346 kts 256°
2026-05-05 17:41 60.25088 23.68327 24144 ft 350 kts 256°
2026-05-05 17:41 60.24585 23.63490 24694 ft 353 kts 256°
2026-05-05 17:41 60.24077 23.58613 25255 ft 356 kts 256°
2026-05-05 17:42 60.23570 23.53766 25812 ft 359 kts 256°
2026-05-05 17:42 60.23049 23.48807 26371 ft 363 kts 256°
2026-05-05 17:42 60.22521 23.43800 26923 ft 366 kts 256°
2026-05-05 17:42 60.21994 23.38822 27464 ft 369 kts 256°
2026-05-05 17:43 60.21453 23.33738 27999 ft 373 kts 256°
2026-05-05 17:43 60.20907 23.28618 28514 ft 376 kts 256°
2026-05-05 17:43 60.20354 23.23458 29044 ft 379 kts 256°
2026-05-05 17:43 60.19793 23.18240 29544 ft 382 kts 256°
2026-05-05 17:44 60.19229 23.13017 30007 ft 385 kts 256°
2026-05-05 17:44 60.18655 23.07710 30385 ft 389 kts 256°
2026-05-05 17:44 60.18074 23.02374 30743 ft 392 kts 256°
2026-05-05 17:44 60.17492 22.97042 31093 ft 396 kts 256°
2026-05-05 17:45 60.16894 22.91594 31430 ft 399 kts 256°
2026-05-05 17:45 60.16296 22.86164 31750 ft 402 kts 256°
2026-05-05 17:45 60.15685 22.80650 32074 ft 405 kts 256°
2026-05-05 17:45 60.15069 22.75097 32394 ft 408 kts 256°
2026-05-05 17:46 60.14452 22.69569 32814 ft 408 kts 256°
2026-05-05 17:46 60.13829 22.64001 33262 ft 407 kts 256°
2026-05-05 17:46 60.13210 22.58494 33685 ft 407 kts 256°
2026-05-05 17:46 60.12583 22.52940 34047 ft 407 kts 256°
2026-05-05 17:47 60.11957 22.47420 34295 ft 410 kts 256°
2026-05-05 17:47 60.11317 22.41807 34533 ft 412 kts 256°
2026-05-05 17:47 60.10674 22.36184 34774 ft 414 kts 256°
2026-05-05 17:47 60.10023 22.30518 35019 ft 416 kts 256°
2026-05-05 17:48 60.09377 22.24912 35258 ft 418 kts 256°
2026-05-05 17:48 60.08714 22.19186 35489 ft 420 kts 256°
2026-05-05 17:48 60.08050 22.13471 35718 ft 422 kts 256°
2026-05-05 17:48 60.07386 22.07780 35943 ft 424 kts 256°
2026-05-05 17:49 60.06709 22.02004 36169 ft 426 kts 256°
2026-05-05 17:49 60.06027 21.96206 36376 ft 428 kts 256°
2026-05-05 17:49 60.05337 21.90367 36606 ft 430 kts 256°
2026-05-05 17:49 60.04644 21.84524 36832 ft 432 kts 256°
2026-05-05 17:50 60.03954 21.78736 37043 ft 433 kts 256°
2026-05-05 17:50 60.03249 21.72843 37261 ft 435 kts 256°
2026-05-05 17:50 60.02539 21.66931 37485 ft 436 kts 256°
2026-05-05 17:50 60.01834 21.61083 37702 ft 438 kts 256°
2026-05-05 17:51 60.01115 21.55151 37907 ft 439 kts 256°
2026-05-05 17:51 60.00390 21.49187 38129 ft 441 kts 256°
2026-05-05 17:51 59.99660 21.43219 38342 ft 442 kts 256°
2026-05-05 17:51 59.98778 21.37396 38539 ft 443 kts 250°
2026-05-05 17:52 59.97702 21.31616 38707 ft 444 kts 250°
2026-05-05 17:52 59.96576 21.25840 38893 ft 444 kts 249°
2026-05-05 17:52 59.95430 21.20103 39085 ft 444 kts 249°
2026-05-05 17:52 59.94286 21.14438 39250 ft 445 kts 249°
2026-05-05 17:53 59.93122 21.08696 39422 ft 445 kts 249°
2026-05-05 17:53 59.91957 21.02953 39591 ft 445 kts 249°
2026-05-05 17:53 59.90799 20.97246 39757 ft 445 kts 249°
2026-05-05 17:54 59.88480 20.85829 39861 ft 446 kts 249°
2026-05-05 17:54 59.86142 20.74365 39858 ft 447 kts 249°
2026-05-05 17:55 59.83787 20.62885 39860 ft 447 kts 248°
2026-05-05 17:55 59.81443 20.51524 39860 ft 447 kts 248°